Wind_Speed
17 16 16 16 16 16 17 17 17 16 16 17 18 18 18 17 18 18 18 17 18 19 19 19 19 19 19 20 20 20 20 20 20 21 21 21 20 20
19 19 19 18 18 18 19 19 18 17 17 18 19 20 20 19 19 20 20 19 19 20 20 20 20 19 19 19 20 20 20 21 21 22 22 22 21 21
20 20 20 20 20 20 20 20 21 20 19 19 20 21 21 21 21 21 21 20 21 21 20 20 20 21 21 20 20 20 21 22 22 22 22 22 23 22
22 22 22 22 22 22 22 22 22 22 22 21 22 22 22 22 23 22 22 22 22 22 22 22 22 21 21 22 22 22 23 23 23 23 23 23 23 22
23 23 23 24 24 24 24 24 24 24 24 23 24 24 25 24 24 25 24 25 24 24 24 24 24 23 23 23 23 23 23 23 23 24 24 24 23 22
24 24 24 24 24 25 25 25 25 25 25 25 25 25 26 26 26 26 26 27 27 27 27 26 26 26 25 25 25 25 25 24 24 24 25 24 24 24
25 25 26 25 25 26 26 26 27 27 27 27 28 28 28 29 29 29 28 28 28 29 29 28 29 28 28 27 27 26 26 26 25 25 26 26 26 25
26 26 27 27 27 27 27 28 28 28 29 29 29 30 30 31 31 31 30 30 29 30 30 30 30 29 29 29 29 29 28 27 27 27 27 27 27 26
27 27 27 28 28 28 28 29 29 30 30 31 31 31 32 32 32 32 32 32 32 31 31 31 31 31 30 30 31 31 30 30 30 29 29 29 28 28
29 29 29 29 29 29 30 30 31 31 32 33 33 33 33 33 33 33 32 32 33 32 32 32 32 32 32 32 32 32 31 31 31 31 30 30 30 28
31 31 31 31 31 31 32 32 32 33 33 33 33 33 33 33 33 33 33 33 33 33 33 32 32 33 33 33 33 33 32 32 33 32 32 31 31 30
32 33 33 33 33 33 33 33 33 33 33 33 34 34 34 34 34 33 33 34 34 34 33 33 33 34 34 33 34 33 33 33 33 33 32 32 32 31
33 34 34 34 34 34 33 33 34 34 34 35 36 36 36 36 35 34 34 34 34 34 34 34 34 34 33 33 33 32 33 33 32 32 33 33 33 33
34 34 34 34 34 34 34 34 35 35 36 35 35 36 36 36 36 35 34 34 34 34 33 34 34 34 33 33 32 32 32 32 32 33 33 34 34 34
35 35 34 34 34 34 34 34 34 35 35 34 34 35 35 36 36 35 35 35 35 34 34 35 35 35 34 33 32 32 32 31 31 32 32 32 34 34
35 34 33 33 33 32 32 33 34 34 34 33 33 34 34 35 35 35 34 34 34 34 34 34 34 34 34 33 33 32 32 32 32 33 32 32 32 32
34 33 33 33 32 32 33 33 33 33 33 33 33 32 32 32 33 33 32 32 32 32 33 32 32 32 33 33 33 32 31 32 33 33 32 32 33 32
34 33 33 33 33 33 33 33 32 32 32 31 31 31 31 31 30 30 30 30 29 30 30 31 31 31 32 33 32 31 31 31 31 31 31 31 31 31
33 32 32 32 32 32 32 32 32 32 31 30 30 30 30 29 28 29 28 28 28 28 29 30 31 30 30 31 32 32 31 31 31 31 31 31 31 31
32 31 31 31 31 31 31 30 30 30 29 29 29 29 28 28 28 28 28 28 28 28 28 28 29 29 29 29 29 30 30 30 30 30 31 31 32 32
30 30 30 30 30 30 29 28 28 27 27 28 28 28 28 27 27 27 27 27 27 27 27 27 27 27 27 28 29 29 29 29 29 28 29 30 30 29
28 28 29 28 28 27 27 27 27 26 26 27 27 27 27 26 26 26 26 26 26 26 26 26 26 26 26 27 28 28 28 29 28 27 27 27 28 28
28 28 28 28 27 27 27 27 27 26 26 26 26 26 25 25 25 25 25 24 24 24 24 24 25 25 25 25 26 26 26 26 26 26 27 27 27 27
Wind_Direction
297 297 295 292 288 286 285 284 282 279 277 277 276 274 271 268 267 265 263 264 265 263 261 261 265 265 264 263 263 263 265 268 271 270 270 269 271 273
292 293 292 291 289 286 284 283 282 281 279 275 274 272 271 268 266 266 262 262 263 265 265 262 263 264 265 266 265 267 270 271 270 269 271 269 270 270
293 291 290 288 288 286 283 282 281 279 276 275 274 273 272 270 269 265 262 263 262 264 267 265 264 264 264 265 267 268 271 273 272 272 271 269 267 268
293 291 290 288 286 285 284 282 280 279 278 275 273 272 271 273 271 268 267 266 266 266 267 267 267 268 265 266 269 271 272 273 272 270 269 268 268 268
294 292 290 288 286 285 283 281 280 279 277 275 272 272 272 275 274 272 269 269 268 267 267 267 268 267 267 268 270 272 273 273 271 270 269 268 268 267
296 293 291 289 287 285 283 280 278 277 276 275 272 271 271 273 273 272 270 268 267 268 267 267 267 266 266 266 269 270 271 271 270 270 269 268 269 269
295 293 291 288 287 285 283 280 279 278 276 275 273 271 271 272 272 272 271 270 267 267 266 266 267 266 265 265 266 269 271 270 269 268 268 267 267 268
294 292 291 288 286 285 283 282 279 278 277 275 275 274 272 271 271 270 270 269 266 267 267 267 267 265 265 265 267 268 269 269 269 268 268 266 265 266
294 293 291 288 286 285 284 282 280 278 277 277 276 275 273 272 271 269 269 268 266 267 267 267 267 265 264 264 266 267 268 268 269 269 267 265 264 265
293 291 290 287 285 284 283 282 280 280 279 279 277 275 274 272 271 270 269 268 268 266 266 266 266 266 266 265 266 267 266 266 267 266 265 263 263 264
293 291 289 287 285 284 283 282 281 279 279 279 278 276 275 273 271 270 268 267 267 266 266 266 265 265 266 266 265 266 266 266 265 265 264 263 262 262
293 292 290 288 286 284 282 281 280 279 277 277 277 276 275 274 272 270 269 269 268 268 267 266 265 265 264 264 265 266 267 268 266 265 263 262 261 259
292 292 291 289 287 285 283 281 280 279 277 277 276 276 275 274 272 269 269 270 270 269 267 265 265 264 264 263 263 264 265 265 265 265 264 263 261 259
293 293 290 289 288 286 284 282 281 279 277 277 276 275 274 273 272 269 269 269 269 269 268 266 265 264 263 262 262 262 263 263 263 264 262 262 261 260
293 292 290 289 288 287 285 283 282 281 278 277 276 274 274 273 271 269 269 269 269 269 269 269 268 265 262 261 261 261 262 263 262 264 262 260 259 258
293 292 291 290 289 288 287 285 284 283 280 278 276 276 275 273 271 268 268 268 269 268 269 270 267 266 264 263 262 262 264 264 263 265 263 261 260 258
293 293 293 291 290 289 288 287 285 284 282 280 279 277 275 274 271 268 266 265 267 268 267 268 267 265 263 262 262 263 264 265 264 263 262 263 262 258
295 295 295 294 292 289 288 288 287 287 284 281 280 280 279 277 274 270 267 266 267 268 267 268 268 266 263 261 262 262 262 264 264 263 262 262 263 261
298 298 297 295 295 292 290 289 289 287 284 283 282 281 280 278 276 274 270 268 268 269 268 268 268 266 264 263 262 261 260 262 263 263 263 262 263 263
298 298 299 297 296 295 293 291 290 287 284 284 283 282 281 279 277 274 271 267 267 267 268 269 269 266 265 264 261 259 259 260 261 262 261 262 262 263
299 299 299 299 298 297 295 293 291 288 286 286 284 282 281 280 278 274 269 266 266 267 267 266 266 266 265 265 265 260 260 260 260 262 262 261 262 263
301 301 301 300 300 299 297 296 295 292 289 288 285 283 281 280 277 274 270 267 266 267 267 266 265 265 265 267 266 262 261 260 260 261 264 264 263 263
302 301 301 300 299 299 298 298 296 293 292 290 287 285 281 279 279 275 271 267 266 266 267 267 266 265 264 265 264 260 260 260 261 263 265 265 265 265
Height
5842 5840 5839 5838 5837 5836 5835 5834 5834 5834 5833 5833 5832 5831 5831 5830 5831 5831 5831 5832 5832 5832 5832 5833 5833 5833 5834 5834 5834 5835 5835 5835 5835 5835 5835 5835 5835 5835
5837 5836 5834 5833 5832 5831 5830 5829 5829 5829 5829 5828 5827 5826 5825 5825 5826 5826 5826 5827 5827 5827 5828 5828 5828 5828 5829 5829 5829 5829 5830 5830 5829 5829 5829 5829 5829 5829
5832 5830 5829 5828 5827 5826 5825 5824 5823 5823 5823 5823 5822 5821 5820 5820 5820 5820 5820 5821 5822 5822 5823 5823 5823 5823 5823 5823 5823 5824 5824 5823 5823 5823 5823 5823 5823 5824
5826 5824 5823 5822 5821 5820 5819 5818 5817 5817 5817 5817 5816 5815 5814 5814 5814 5815 5815 5815 5816 5816 5816 5816 5816 5816 5817 5817 5817 5817 5817 5817 5817 5817 5817 5817 5817 5818
5820 5818 5817 5815 5814 5813 5812 5812 5811 5810 5809 5809 5809 5808 5808 5808 5807 5808 5808 5808 5808 5809 5809 5809 5810 5810 5810 5811 5811 5811 5810 5810 5810 5810 5810 5810 5811 5811
5813 5812 5810 5809 5807 5806 5805 5804 5804 5803 5802 5802 5802 5801 5801 5800 5800 5800 5800 5800 5801 5801 5802 5802 5802 5803 5803 5803 5803 5804 5803 5803 5803 5803 5803 5804 5804 5805
5807 5805 5803 5801 5800 5799 5798 5797 5796 5795 5795 5794 5794 5793 5793 5792 5792 5792 5792 5792 5793 5793 5794 5794 5794 5794 5795 5795 5795 5796 5796 5796 5796 5796 5796 5796 5797 5798
5800 5797 5795 5794 5792 5791 5789 5788 5788 5787 5786 5786 5785 5785 5784 5784 5783 5784 5784 5784 5785 5785 5785 5785 5785 5786 5786 5787 5787 5788 5788 5788 5788 5788 5788 5789 5789 5790
5792 5789 5787 5786 5784 5783 5781 5780 5778 5777 5777 5777 5776 5775 5774 5774 5774 5774 5774 5774 5775 5775 5775 5776 5776 5777 5777 5778 5779 5779 5779 5779 5779 5780 5780 5781 5781 5782
5783 5781 5779 5777 5775 5774 5773 5771 5770 5768 5767 5766 5766 5765 5765 5764 5763 5764 5764 5764 5765 5765 5765 5765 5766 5766 5767 5768 5769 5769 5770 5770 5770 5771 5771 5772 5773 5774
5774 5772 5770 5768 5766 5764 5763 5762 5760 5759 5757 5756 5755 5754 5754 5753 5753 5753 5753 5754 5754 5755 5755 5755 5756 5756 5757 5758 5758 5759 5759 5760 5760 5761 5761 5763 5763 5764
5765 5762 5760 5758 5756 5754 5752 5751 5750 5749 5747 5746 5745 5744 5743 5742 5742 5742 5743 5743 5743 5744 5745 5745 5746 5746 5747 5748 5748 5749 5749 5750 5750 5751 5751 5752 5754 5755
5755 5753 5750 5747 5745 5743 5742 5740 5739 5738 5737 5736 5735 5733 5732 5732 5731 5731 5731 5732 5732 5733 5734 5734 5734 5735 5736 5737 5738 5739 5739 5739 5740 5740 5741 5742 5743 5745
5745 5742 5740 5737 5735 5733 5731 5729 5728 5727 5726 5725 5724 5723 5722 5721 5720 5720 5720 5720 5721 5722 5722 5722 5723 5724 5725 5726 5727 5728 5729 5729 5730 5730 5731 5732 5733 5734
5735 5732 5729 5727 5724 5722 5720 5718 5716 5715 5714 5713 5712 5711 5710 5709 5709 5709 5709 5709 5710 5710 5711 5711 5712 5713 5714 5715 5717 5718 5719 5719 5720 5720 5721 5722 5723 5724
5724 5721 5719 5716 5714 5712 5709 5708 5706 5704 5703 5702 5701 5700 5699 5698 5697 5698 5698 5699 5699 5700 5700 5700 5701 5702 5703 5704 5705 5707 5708 5709 5710 5710 5710 5712 5713 5714
5714 5712 5709 5707 5704 5702 5699 5697 5695 5694 5692 5691 5690 5689 5687 5687 5686 5686 5687 5687 5688 5688 5689 5689 5690 5691 5692 5693 5695 5696 5697 5698 5699 5699 5700 5701 5703 5704
5705 5702 5699 5696 5694 5692 5690 5687 5685 5684 5682 5681 5680 5678 5677 5676 5676 5676 5676 5677 5677 5677 5678 5678 5679 5680 5681 5682 5684 5685 5686 5687 5688 5689 5690 5692 5693 5694
5694 5692 5689 5687 5684 5681 5679 5677 5676 5674 5672 5671 5670 5669 5668 5667 5667 5667 5667 5667 5667 5668 5668 5668 5668 5669 5670 5672 5673 5674 5676 5677 5678 5679 5680 5682 5683 5684
5684 5682 5680 5677 5675 5672 5670 5668 5666 5664 5663 5662 5660 5659 5658 5658 5657 5657 5657 5657 5658 5658 5658 5658 5659 5659 5661 5662 5663 5664 5666 5667 5668 5669 5670 5671 5673 5674
5675 5673 5671 5669 5666 5663 5661 5659 5657 5655 5654 5653 5651 5650 5649 5648 5648 5647 5648 5648 5648 5649 5649 5650 5650 5650 5651 5652 5653 5655 5656 5657 5658 5659 5660 5661 5662 5663
5667 5665 5662 5660 5657 5655 5653 5651 5649 5647 5645 5643 5642 5641 5640 5639 5638 5638 5638 5638 5639 5640 5640 5640 5640 5641 5642 5643 5644 5645 5646 5647 5648 5649 5650 5651 5652 5653
5660 5657 5655 5652 5650 5647 5645 5643 5641 5639 5637 5635 5633 5632 5630 5630 5629 5628 5629 5629 5630 5630 5631 5631 5632 5632 5633 5634 5635 5636 5637 5637 5638 5639 5641 5641 5642 5643